User: anonymous   Login
Location: Home
(42.5358°N, 72.7383°W)
Time: 23:12:28
(UTC-04:00)
Language:

FENGYUN 1C DEB - Orbit

View from above orbital plane
View from above orbital plane
View from above satellite
View from above satellite

Ground track
Ground track

The orbit data is extracted from the following two-line orbital elements,

1 30876U 99025AXN 23150.03507219  .00000426  00000-0  32463-3 0  9990
2 30876  98.7739 163.0319 0067895 331.9031  91.3870 13.97852553827437
Epoch (UTC): 30 May 2023 00:50:30
Eccentricity: 0.0067895
inclination: 98.7739°
perigee height: 852 km
apogee height: 950 km
right ascension of ascending node: 163.0319°
argument of perigee: 331.9031°
revolutions per day: 13.97852553
mean anomaly at epoch: 91.3870°
orbit number at epoch: 82743

The dashed part of the orbit path shows where the satellite is in the earth's shadow,  

DLR